FW3855 Weather Reports


Display with metric or nautical units.
time (UTC)temp
F
wind
direction
speed
MPH
gust
MPH
rain 1hr
in
rain 24hr
in
rain mn
in
humidity
%
barometer
mb
20210128144831 37 169 4.0 9.0 0.00 0.03 0.00 41 1016.9
20210128144331 38 176 5.0 9.0 0.00 0.03 0.00 39 1016.9
20210128143823 38 179 5.0 9.0 0.00 0.03 0.00 38 1016.9
20210128143331 38 172 4.0 9.0 0.00 0.03 0.00 37 1016.8
20210128142822 38 188 3.0 7.0 0.00 0.03 0.00 37 1016.8
20210128142319 37 162 3.0 6.0 0.00 0.03 0.00 38 1016.8
20210128141816 37 213 3.0 6.0 0.00 0.03 0.00 39 1016.7
20210128141315 38 172 3.0 12.0 0.00 0.03 0.00 38 1016.7
20210128140826 38 177 3.0 12.0 0.00 0.03 0.00 37 1016.6
20210128140318 37 160 2.0 9.0 0.00 0.03 0.00 36 1016.6
20210128135815 37 131 1.0 3.0 0.00 0.03 0.00 38 1016.6
20210128135321 37 118 1.0 3.0 0.00 0.03 0.00 37 1016.6
20210128134817 37 122 1.0 3.0 0.00 0.03 0.00 39 1016.7
20210128134309 37 137 1.0 2.0 0.00 0.03 0.00 37 1016.6
20210128133808 38 205 1.0 2.0 0.00 0.03 0.00 37 1016.6
20210128133320 38 190 1.0 2.0 0.00 0.03 0.00 36 1016.6
20210128132819 38 141 1.0 2.0 0.00 0.03 0.00 35 1016.6
20210128132316 38 82 0.0 2.0 0.00 0.03 0.00 34 1016.7
20210128131810 38 217 0.0 2.0 0.00 0.03 0.00 33 1016.7
20210128131308 39 126 1.0 3.0 0.00 0.03 0.00 36 1016.7
20210128130807 39 131 1.0 4.0 0.00 0.03 0.00 33 1016.7
20210128130309 39 113 1.0 6.0 0.00 0.03 0.00 34 1016.7
20210128125809 39 256 2.0 9.0 0.00 0.03 0.00 33 1016.6
20210128125307 39 200 4.0 11.0 0.00 0.03 0.00 31 1016.6
20210128124809 40 153 4.0 11.0 0.00 0.03 0.00 32 1016.7
20210128124304 39 160 4.0 11.0 0.00 0.03 0.00 31 1016.6
20210128123806 39 156 3.0 11.0 0.00 0.03 0.00 33 1016.6
20210128123313 39 140 4.0 9.0 0.00 0.03 0.00 34 1016.6
20210128122814 40 178 5.0 16.0 0.00 0.03 0.00 31 1016.7
20210128122307 39 127 4.0 16.0 0.00 0.03 0.00 31 1016.7
20210128121809 39 193 4.0 11.0 0.00 0.03 0.00 31 1016.6
20210128121258 39 157 4.0 10.0 0.00 0.03 0.00 32 1016.8
20210128120802 39 233 4.0 13.0 0.00 0.03 0.00 33 1016.8
20210128120259 39 162 3.0 13.0 0.00 0.03 0.00 33 1016.7
20210128115758 38 155 4.0 9.0 0.00 0.03 0.00 34 1016.7
20210128115310 38 155 3.0 11.0 0.00 0.03 0.00 35 1016.7
20210128114802 38 236 2.0 11.0 0.00 0.03 0.00 38 1016.8
20210128114255 38 169 2.0 10.0 0.00 0.03 0.00 34 1016.7
20210128113757 38 79 2.0 11.0 0.00 0.03 0.00 35 1016.8
20210128113326 38 153 1.0 11.0 0.00 0.03 0.00 36 1016.9
20210128112805 38 90 1.0 5.0 0.00 0.03 0.00 36 1016.9
20210128112306 38 136 1.0 6.0 0.00 0.03 0.00 36 1016.9
20210128111802 39 110 1.0 6.0 0.00 0.03 0.00 35 1017.0
20210128111301 39 142 2.0 6.0 0.00 0.03 0.00 34 1016.9
20210128110755 38 166 1.0 4.0 0.00 0.03 0.00 33 1016.9
20210128110254 38 211 2.0 7.0 0.00 0.03 0.00 35 1017.0
20210128105751 39 136 3.0 9.0 0.00 0.03 0.00 33 1017.3
20210128105257 39 210 4.0 10.0 0.00 0.03 0.00 34 1017.3
20210128104754 39 147 4.0 10.0 0.00 0.03 0.00 33 1017.4
20210128104251 38 158 3.0 8.0 0.00 0.03 0.00 35 1017.4
20210128103750 38 127 3.0 8.0 0.00 0.03 0.00 35 1017.4
20210128103255 38 155 3.0 8.0 0.00 0.03 0.00 36 1017.5
20210128102749 38 186 3.0 8.0 0.00 0.03 0.00 36 1017.5
20210128102245 38 156 3.0 13.0 0.00 0.03 0.00 37 1017.5
20210128101758 38 165 5.0 14.0 0.00 0.03 0.00 35 1017.5
20210128101328 38 150 4.0 14.0 0.00 0.03 0.00 36 1017.5
20210128100744 38 178 3.0 11.0 0.00 0.03 0.00 38 1017.6
20210128100242 38 172 2.0 7.0 0.00 0.03 0.00 39 1017.6
20210128095751 37 222 1.0 5.0 0.00 0.03 0.00 40 1017.7
20210128095240 38 149 2.0 8.0 0.00 0.03 0.00 40 1017.7
20210128094747 38 192 2.0 8.0 0.00 0.03 0.00 37 1017.8
20210128094234 38 199 2.0 10.0 0.00 0.03 0.00 37 1017.7
20210128093734 39 151 3.0 10.0 0.00 0.03 0.00 39 1017.7
20210128093239 39 110 4.0 14.0 0.00 0.03 0.00 35 1017.8
20210128092749 39 134 5.0 14.0 0.00 0.03 0.00 38 1017.8
20210128092236 39 238 5.0 11.0 0.00 0.03 0.00 35 1017.8
20210128091727 39 207 6.0 15.0 0.00 0.03 0.00 34 1017.8
20210128091228 39 197 5.0 15.0 0.00 0.03 0.00 33 1018.0
20210128090728 39 145 5.0 14.0 0.00 0.03 0.00 35 1017.8
20210128090232 39 129 5.0 14.0 0.00 0.03 0.00 37 1017.8
20210128085731 39 146 4.0 16.0 0.00 0.03 0.00 36 1018.0
20210128085232 39 188 4.0 16.0 0.00 0.03 0.00 39 1017.8
20210128084724 38 184 4.0 12.0 0.00 0.03 0.00 39 1017.8
20210128084236 38 232 4.0 15.0 0.00 0.03 0.00 39 1017.8
20210128083730 38 141 4.0 15.0 0.00 0.03 0.00 40 1017.8
20210128083224 38 181 4.0 14.0 0.00 0.03 0.00 42 1018.0
20210128082727 37 254 3.0 10.0 0.00 0.03 0.00 42 1017.8
20210128082223 37 244 3.0 9.0 0.00 0.03 0.00 45 1018.0
20210128081717 37 162 4.0 10.0 0.00 0.03 0.00 45 1018.0
20210128081222 37 195 3.0 10.0 0.00 0.03 0.00 46 1018.1
20210128080719 37 180 3.0 14.0 0.00 0.03 0.00 45 1018.0
20210128080217 37 158 2.0 14.0 0.00 0.03 0.00 46 1018.1
20210128075712 37 177 2.0 10.0 0.00 0.03 0.00 46 1018.1
20210128075223 37 314 3.0 10.0 0.00 0.03 0.00 46 1018.2
20210128074713 37 154 2.0 8.0 0.00 0.03 0.00 46 1018.3
20210128074212 36 173 2.0 10.0 0.00 0.03 0.00 49 1018.2
20210128073723 37 210 2.0 10.0 0.00 0.03 0.00 49 1018.2
20210128073212 36 158 1.0 5.0 0.00 0.03 0.00 51 1018.3
20210128072710 36 176 1.0 5.0 0.00 0.03 0.00 51 1018.3
20210128072211 36 91 1.0 5.0 0.00 0.03 0.00 49 1018.3
20210128071702 36 238 1.0 6.0 0.00 0.03 0.00 50 1018.4
20210128071201 36 212 0.0 6.0 0.00 0.03 0.00 51 1018.4
20210128070706 36 68 2.0 8.0 0.00 0.03 0.00 53 1018.4
20210128070203 37 155 3.0 10.0 0.00 0.03 0.00 50 1018.4
20210128065705 36 172 3.0 10.0 0.00 0.03 0.03 52 1018.4
20210128065207 36 199 2.0 8.0 0.00 0.03 0.03 55 1018.4
20210128064659 35 16 1.0 5.0 0.00 0.03 0.03 57 1018.5
20210128064158 35 264 1.0 5.0 0.00 0.03 0.03 58 1018.5
20210128063705 35 138 1.0 9.0 0.00 0.03 0.03 58 1018.6
20210128063158 34 158 1.0 9.0 0.00 0.03 0.03 59 1018.6
20210128062657 34 231 0.0 5.0 0.00 0.03 0.03 61 1018.6
20210128062220 34 293 1.0 3.0 0.00 0.03 0.03 62 1018.8
20210128061656 33 230 1.0 3.0 0.00 0.03 0.03 61 1018.8
20210128061155 33 294 0.0 2.0 0.00 0.03 0.03 63 1018.8
20210128060653 33 321 0.0 2.0 0.00 0.03 0.03 65 1018.6
20210128060153 33 252 0.0 2.0 0.00 0.03 0.03 64 1018.8
20210128055652 33 39 0.0 2.0 0.00 0.03 0.03 62 1018.8
20210128055149 33 261 0.0 1.0 0.00 0.03 0.03 63 1018.8
20210128054648 33 295 0.0 1.0 0.00 0.03 0.03 63 1018.8
20210128054147 33 295 0.0 3.0 0.00 0.03 0.03 62 1018.8
20210128053652 33 198 1.0 5.0 0.00 0.03 0.03 64 1018.8
20210128053154 33 318 1.0 5.0 0.00 0.03 0.03 64 1018.8
20210128052645 33 290 0.0 3.0 0.00 0.03 0.03 65 1018.6
20210128052143 33 4 0.0 2.0 0.00 0.03 0.03 67 1018.8
20210128051640 32 46 0.0 2.0 0.00 0.03 0.03 68 1018.6
20210128051142 32 105 0.0 1.0 0.00 0.03 0.03 68 1018.5
20210128050647 32 134 0.0 2.0 0.00 0.03 0.03 70 1018.6
20210128050146 33 181 0.0 2.0 0.00 0.03 0.03 68 1018.8
20210128045647 33 222 0.0 2.0 0.00 0.03 0.03 65 1018.6
20210128045144 33 148 0.0 2.0 0.00 0.03 0.03 67 1018.6
20210128044639 33 142 0.0 4.0 0.00 0.03 0.03 65 1018.6
20210128044134 34 250 0.0 4.0 0.00 0.03 0.03 62 1018.6
20210128043637 35 199 1.0 5.0 0.00 0.03 0.03 61 1018.6
20210128043144 35 174 1.0 6.0 0.00 0.03 0.03 61 1018.6
20210128042643 34 247 1.0 6.0 0.00 0.03 0.03 61 1018.6
20210128042132 34 174 1.0 4.0 0.00 0.03 0.03 63 1018.6
20210128041626 34 217 1.0 4.0 0.00 0.03 0.03 63 1018.6
20210128041128 34 256 0.0 3.0 0.00 0.03 0.03 64 1018.5
20210128040630 34 118 1.0 5.0 0.00 0.03 0.03 65 1018.4
20210128040128 34 195 0.0 5.0 0.00 0.03 0.03 66 1018.4
20210128035632 33 225 0.0 3.0 0.00 0.03 0.03 68 1018.3
20210128035129 33 158 0.0 2.0 0.00 0.03 0.03 70 1018.4
20210128034618 33 345 0.0 1.0 0.00 0.03 0.03 71 1018.4
20210128034125 33 262 0.0 3.0 0.00 0.03 0.03 72 1018.4
20210128033620 34 219 0.0 3.0 0.00 0.03 0.03 71 1018.4
20210128033124 34 95 0.0 1.0 0.00 0.03 0.03 69 1018.5
20210128032620 35 267 0.0 4.0 0.00 0.03 0.03 68 1018.4
20210128032140 35 259 0.0 4.0 0.00 0.03 0.03 67 1018.4
20210128031617 35 193 1.0 5.0 0.00 0.03 0.03 68 1018.5
20210128031112 35 179 2.0 12.0 0.01 0.03 0.03 68 1018.5
20210128030614 35 141 1.0 12.0 0.01 0.03 0.03 68 1018.4
20210128030114 35 118 0.0 6.0 0.01 0.03 0.03 69 1018.5
20210128025635 34 124 0.0 4.0 0.01 0.03 0.03 70 1018.4
20210128025116 34 170 1.0 8.0 0.01 0.03 0.03 71 1018.4
20210128024635 33 162 1.0 8.0 0.01 0.03 0.03 72 1018.5
20210128024115 34 179 0.0 2.0 0.01 0.03 0.03 73 1018.4
20210128023603 34 141 0.0 1.0 0.01 0.03 0.03 72 1018.5
20210128023058 35 139 1.0 5.0 0.01 0.03 0.03 70 1018.6
20210128022557 35 229 1.0 5.0 0.01 0.03 0.03 67 1018.5
20210128022052 35 105 1.0 5.0 0.01 0.03 0.03 68 1018.5
20210128021559 35 122 1.0 4.0 0.01 0.03 0.03 68 1018.4
20210128021056 35 113 1.0 4.0 0.00 0.02 0.02 69 1018.4
20210128020600 35 141 2.0 5.0 0.00 0.02 0.02 67 1018.3
20210128020057 35 107 2.0 5.0 0.00 0.02 0.02 68 1018.3
20210128015552 35 138 2.0 7.0 0.00 0.02 0.02 68 1018.3
20210128015105 35 174 2.0 7.0 0.00 0.02 0.02 67 1018.3
20210128014552 34 184 1.0 4.0 0.00 0.02 0.02 68 1018.4
20210128014048 34 156 1.0 3.0 0.00 0.02 0.02 71 1018.5
20210128013549 34 161 1.0 3.0 0.00 0.02 0.02 70 1018.5
20210128013054 35 169 1.0 5.0 0.00 0.02 0.02 72 1018.4
20210128012546 35 168 1.0 5.0 0.01 0.02 0.02 67 1018.4
20210128012046 34 149 1.0 3.0 0.01 0.02 0.02 70 1018.4
20210128011602 34 162 1.0 2.0 0.01 0.02 0.02 71 1018.4
20210128011048 34 165 1.0 2.0 0.01 0.02 0.02 72 1018.5
20210128010544 34 122 1.0 2.0 0.01 0.02 0.02 72 1018.5
20210128010100 34 144 1.0 2.0 0.01 0.02 0.02 72 1018.6
20210128005539 34 145 1.0 2.0 0.01 0.02 0.02 72 1018.8
20210128005104 34 184 1.0 2.0 0.01 0.02 0.02 72 1018.8
20210128004650 35 141 1.0 2.0 0.01 0.02 0.02 71 1018.8
20210128004109 35 165 0.0 1.0 0.01 0.02 0.02 72 1018.8
20210128003540 35 142 0.0 1.0 0.01 0.02 0.02 71 1018.8
20210128003110 35 158 0.0 1.0 0.01 0.02 0.02 70 1018.9
20210128002554 35 122 0.0 1.0 0.01 0.01 0.02 71 1018.9
20210128002104 35 122 0.0 1.0 0.01 0.01 0.01 72 1019.0
20210128001540 35 122 0.0 1.0 0.01 0.01 0.01 70 1019.0
20210128001041 35 162 0.0 4.0 0.01 0.01 0.01 70 1019.0
20210128000717 35 164 1.0 4.0 0.01 0.01 0.01 70 1019.0
20210128000131 35 172 0.0 3.0 0.01 0.01 0.01 70 1019.1
20210127235533 35 113 0.0 3.0 0.01 0.01 0.01 69 1019.2
20210127235041 36 85 0.0 1.0 0.01 0.01 0.01 69 1019.2
20210127234547 36 217 0.0 2.0 0.01 0.01 0.01 69 1019.1
20210127234033 36 217 0.0 2.0 0.01 0.01 0.01 67 1019.1
20210127233545 36 152 0.0 2.0 0.01 0.01 0.01 67 1019.0
20210127233033 36 82 0.0 2.0 0.00 0.00 0.01 68 1019.2
20210127232525 36 208 1.0 3.0 0.00 0.00 0.00 67 1019.2
20210127232031 36 184 0.0 3.0 0.00 0.00 0.00 68 1019.2
20210127231531 36 114 0.0 3.0 0.00 0.00 0.00 69 1019.2
20210127231040 36 119 0.0 3.0 0.00 0.00 0.00 69 1019.3
20210127230533 36 85 0.0 2.0 0.00 0.00 0.00 69 1019.2
20210127230024 37 265 0.0 1.0 0.00 0.00 0.00 65 1019.3
20210127225522 37 233 0.0 1.0 0.00 0.00 0.00 66 1019.2
20210127225030 37 207 0.0 2.0 0.00 0.00 0.00 65 1019.2
20210127224525 37 148 1.0 3.0 0.00 0.00 0.00 64 1019.3
20210127224024 37 295 1.0 3.0 0.00 0.00 0.00 63 1019.2
20210127223537 37 283 0.0 3.0 0.00 0.00 0.00 66 1019.3
20210127223022 37 338 0.0 3.0 0.00 0.00 0.00 66 1019.3
20210127222523 37 288 1.0 4.0 0.00 0.00 0.00 65 1019.4
20210127222019 37 205 1.0 4.0 0.00 0.00 0.00 64 1019.4
20210127221525 38 302 0.0 2.0 0.00 0.00 0.00 65 1019.6
20210127221037 37 177 0.0 3.0 0.00 0.00 0.00 68 1019.7
20210127220529 37 264 1.0 3.0 0.00 0.00 0.00 69 1019.6
20210127220022 36 34 1.0 4.0 0.00 0.00 0.00 69 1019.6
20210127215501 36 83 1.0 4.0 0.00 0.00 0.00 67 1019.6
20210127215020 36 312 1.0 3.0 0.00 0.00 0.00 68 1019.6
20210127214457 36 8 1.0 4.0 0.00 0.00 0.00 67 1019.6
20210127213959 36 49 2.0 4.0 0.00 0.00 0.00 67 1019.6
20210127213512 37 28 1.0 4.0 0.00 0.00 0.00 67 1019.6
20210127213010 37 53 1.0 6.0 0.00 0.00 0.00 66 1019.8
20210127212451 37 295 1.0 6.0 0.00 0.00 0.00 64 1019.8
20210127211952 38 27 1.0 6.0 0.00 0.00 0.00 64 1019.9
20210127211500 38 203 1.0 6.0 0.00 0.00 0.00 64 1020.0
20210127210952 37 280 1.0 3.0 0.00 0.00 0.00 63 1020.1
20210127210525 37 303 1.0 5.0 0.00 0.00 0.00 64 1020.1
20210127210019 37 325 1.0 5.0 0.00 0.00 0.00 65 1020.2
20210127205441 37 250 1.0 3.0 0.00 0.00 0.00 63 1020.2
20210127204950 37 260 1.0 3.0 0.00 0.00 0.00 64 1020.1
20210127204452 37 23 1.0 3.0 0.00 0.00 0.00 65 1020.2
20210127203946 37 297 1.0 3.0 0.00 0.00 0.00 66 1020.5
20210127203443 37 278 1.0 3.0 0.00 0.00 0.00 64 1020.5
20210127202944 37 42 1.0 3.0 0.00 0.00 0.00 64 1020.7
20210127202442 37 296 1.0 3.0 0.00 0.00 0.00 64 1020.7
20210127201942 37 315 1.0 4.0 0.00 0.00 0.00 64 1020.7
20210127201440 38 127 2.0 10.0 0.00 0.00 0.00 63 1020.8
20210127200938 37 172 3.0 10.0 0.00 0.00 0.00 63 1020.9
20210127200447 37 158 3.0 9.0 0.00 0.00 0.00 62 1020.9
20210127195934 37 63 2.0 6.0 0.00 0.00 0.00 62 1021.0
20210127195435 38 174 2.0 9.0 0.00 0.00 0.00 63 1020.9
20210127194931 38 110 3.0 9.0 0.00 0.00 0.00 61 1020.9
20210127194441 38 172 3.0 8.0 0.00 0.00 0.00 61 1021.0
20210127193937 37 164 3.0 10.0 0.00 0.00 0.00 62 1021.1
20210127193430 37 143 2.0 10.0 0.00 0.00 0.00 63 1021.0
20210127192927 37 209 1.0 10.0 0.00 0.00 0.00 62 1021.3
20210127192426 37 128 1.0 3.0 0.00 0.00 0.00 63 1021.0
20210127191931 37 82 1.0 5.0 0.00 0.00 0.00 64 1021.1
20210127191430 36 104 1.0 8.0 0.00 0.00 0.00 64 1021.3
20210127190927 36 212 2.0 8.0 0.00 0.00 0.00 65 1021.4
20210127190435 35 163 3.0 9.0 0.00 0.00 0.00 66 1021.6
20210127185919 34 195 3.0 9.0 0.00 0.00 0.00 66 1021.5
20210127185436 34 120 3.0 12.0 0.00 0.00 0.00 66 1021.6
20210127184924 34 259 3.0 12.0 0.00 0.00 0.00 66 1021.6
20210127184423 34 237 3.0 6.0 0.00 0.00 0.00 67 1021.7
20210127183923 34 6 2.0 6.0 0.00 0.00 0.00 67 1021.7
20210127183426 35 131 2.0 8.0 0.00 0.00 0.00 66 1021.7
20210127182920 34 280 3.0 8.0 0.00 0.00 0.00 67 1021.7
20210127182421 34 115 4.0 9.0 0.00 0.00 0.00 66 1021.9
20210127181919 34 184 4.0 13.0 0.00 0.00 0.00 67 1021.8
20210127181417 33 221 4.0 13.0 0.00 0.00 0.00 68 1021.9
20210127180914 33 228 3.0 12.0 0.00 0.00 0.00 68 1021.9
20210127180423 33 165 3.0 12.0 0.00 0.00 0.00 69 1021.9
20210127175907 33 195 3.0 8.0 0.00 0.00 0.00 68 1021.7
20210127175408 33 192 2.0 8.0 0.00 0.00 0.00 68 1021.7
20210127174920 33 176 2.0 8.0 0.00 0.00 0.00 68 1021.6
20210127174411 33 174 3.0 13.0 0.00 0.00 0.00 69 1021.6
20210127173907 33 297 3.0 13.0 0.00 0.00 0.00 68 1021.6
20210127173411 33 182 3.0 10.0 0.00 0.00 0.00 68 1021.6
20210127172901 33 172 3.0 10.0 0.00 0.00 0.00 68 1021.6
20210127172408 33 233 2.0 7.0 0.00 0.00 0.00 69 1021.5
20210127171904 33 198 3.0 8.0 0.00 0.00 0.00 69 1021.5
20210127171402 33 130 2.0 8.0 0.00 0.00 0.00 68 1021.5
20210127170858 33 152 2.0 8.0 0.00 0.00 0.00 69 1021.4
20210127170401 33 76 1.0 8.0 0.00 0.00 0.00 68 1021.5
20210127165905 33 309 1.0 3.0 0.00 0.00 0.00 68 1021.4
20210127165359 33 90 1.0 7.0 0.00 0.00 0.00 68 1021.3
20210127164859 33 243 1.0 7.0 0.00 0.00 0.00 68 1021.3
20210127164352 33 116 1.0 4.0 0.00 0.00 0.00 70 1021.4
20210127163853 32 261 3.0 13.0 0.00 0.00 0.00 70 1021.3
20210127163400 31 270 4.0 13.0 0.00 0.00 0.00 70 1021.1
20210127162900 31 146 2.0 7.0 0.00 0.00 0.00 70 1021.3
20210127162355 31 136 1.0 8.0 0.00 0.00 0.00 72 1021.1
20210127161848 30 86 2.0 11.0 0.00 0.00 0.00 72 1021.0
20210127161350 30 226 1.0 11.0 0.00 0.00 0.00 72 1021.0
20210127160856 30 225 1.0 6.0 0.00 0.00 0.00 74 1021.0
20210127160346 29 153 2.0 7.0 0.00 0.00 0.00 73 1021.0
20210127155848 29 212 2.0 7.0 0.00 0.00 0.00 74 1021.0
20210127155350 29 207 1.0 6.0 0.00 0.00 0.00 74 1021.0
20210127154845 28 172 1.0 4.0 0.00 0.00 0.00 74 1020.9
20210127154342 28 254 1.0 4.0 0.00 0.00 0.00 74 1020.9
20210127153845 28 92 1.0 9.0 0.00 0.00 0.00 74 1020.9
20210127153348 28 0 2.0 9.0 0.00 0.00 0.00 74 1020.8
20210127152855 27 245 1.0 5.0 0.00 0.00 0.00 75 1020.8
20210127152351 27 257 0.0 4.0 0.00 0.00 0.00 75 1020.7
20210127151846 27 275 1.0 7.0 0.00 0.00 0.00 76 1020.5
20210127151349 26 326 1.0 7.0 0.00 0.00 0.00 76 1020.6
20210127150847 26 200 1.0 4.0 0.00 0.00 0.00 76 1020.3
20210127150340 26 38 0.0 4.0 0.00 0.00 0.00 77 1020.3
20210127145839 26 333 1.0 4.0 0.00 0.00 0.00 77 1020.2
20210127145344 25 231 0.0 2.0 0.00 0.00 0.00 78 1020.3